Temperature
18 18 18 18 18 18 18 18 18 18 18 18 18 18 18 18 18 18 18 18 18 18 18 17 17 17 17 17 17 17 17 17 17 16 16 16 16 16 16 16 16 16 16
18 18 18 18 18 18 18 18 18 18 18 18 18 18 18 18 18 17 18 18 18 18 17 17 17 17 17 17 17 17 17 17 17 16 16 16 16 16 16 16 16 16 16
18 18 18 18 18 18 18 18 18 18 18 18 18 18 18 18 17 17 17 17 17 17 17 17 17 17 17 17 17 17 17 16 16 16 16 16 16 16 16 16 16 16 16
18 18 18 18 18 18 18 18 18 18 18 18 18 18 18 18 17 17 17 17 17 17 17 17 17 17 17 17 17 17 17 16 16 16 16 16 16 16 16 16 16 16 16
18 18 18 18 18 18 18 18 18 18 18 18 18 18 18 18 18 17 17 17 17 17 17 17 17 17 17 17 17 17 17 16 16 16 16 16 16 16 16 16 16 16 16
18 18 18 18 18 18 18 18 18 18 18 18 18 18 18 18 18 18 17 17 17 17 17 17 17 17 17 17 17 17 17 16 16 16 16 16 16 16 16 16 16 16 16
18 18 18 18 18 18 18 18 18 18 18 18 18 18 18 18 18 18 18 17 17 17 17 17 17 17 17 17 16 16 16 16 16 16 16 16 16 16 16 16 16 16 16
18 18 18 18 18 18 17 17 17 18 18 18 18 18 18 18 18 18 18 18 18 17 17 17 17 17 17 16 16 16 16 16 16 16 16 16 16 16 16 16 16 15 15
18 18 18 18 18 17 18 17 17 18 18 18 18 18 18 18 18 18 18 18 18 17 17 17 17 17 17 16 16 16 16 16 16 16 16 16 16 16 15 15 15 15 15
18 18 18 18 18 17 17 18 17 17 18 18 18 18 18 18 18 18 18 18 18 18 17 17 17 17 17 16 16 16 16 16 16 16 16 16 16 15 15 15 15 15 15
18 18 18 18 18 17 17 17 17 17 17 18 18 18 18 18 18 18 18 18 18 18 18 17 17 17 17 17 16 16 16 16 16 16 16 16 15 15 15 15 15 15 15
18 18 17 17 18 17 17 17 17 17 17 17 18 18 18 18 18 18 18 18 18 18 18 18 17 17 17 17 16 16 16 16 16 16 16 16 15 15 15 15 15 15 15
18 18 17 17 17 17 17 17 17 17 17 17 17 18 18 18 18 18 18 18 18 18 18 18 18 17 17 17 17 16 16 16 16 16 16 16 15 15 15 15 15 15 15
18 18 17 18 17 17 17 17 17 17 17 17 17 17 17 18 18 18 18 18 18 18 18 18 18 18 17 17 17 16 16 16 16 16 16 16 16 15 15 15 15 15 15
18 18 18 17 17 17 17 17 17 17 17 17 17 17 17 17 17 17 18 18 18 18 18 18 18 18 17 17 17 16 16 16 16 16 16 16 16 15 15 15 15 15 15
18 18 17 17 17 17 17 17 17 17 17 17 16 16 17 17 17 17 17 17 17 18 18 18 18 17 17 17 16 16 16 16 16 16 16 16 16 15 15 15 15 15 15
17 17 17 17 17 17 17 17 17 17 16 16 16 16 16 16 16 17 17 17 17 17 17 17 17 17 17 17 17 16 16 16 16 16 16 16 16 15 15 15 15 15 15
17 17 17 17 17 17 17 17 17 16 16 16 16 16 16 16 16 16 16 16 16 17 17 17 17 17 17 17 16 16 16 16 16 16 16 16 16 16 15 15 15 15 15
17 17 17 17 17 17 17 17 17 16 16 16 16 16 16 16 16 16 16 16 16 16 16 16 16 16 16 16 16 16 16 16 16 16 16 16 16 15 15 15 15 15 15
17 17 17 17 17 17 16 16 16 16 16 16 16 16 16 16 16 16 16 16 16 16 16 16 16 16 16 16 16 16 16 16 16 16 15 15 15 15 15 15 15 15 15
17 17 17 17 17 16 16 16 16 16 16 16 16 16 16 15 15 15 15 15 15 15 15 15 15 15 15 15 15 15 15 15 15 15 15 15 15 15 15 15 15 15 15
17 16 16 16 16 16 16 16 16 16 16 16 16 16 16 15 15 15 15 15 15 15 15 15 15 15 15 15 15 15 15 14 14 15 14 15 14 14 14 14 14 14 14
17 16 16 16 16 16 16 16 16 16 16 15 15 15 15 15 15 15 15 15 15 15 15 15 15 15 15 14 14 14 14 14 14 14 14 14 14 14 14 14 14 14 14
16 16 16 16 16 16 16 16 16 16 15 15 15 15 15 15 15 15 15 15 15 15 14 14 14 14 14 14 14 13 13 13 13 13 13 13 13 13 13 13 13 13 13
16 16 16 16 16 16 16 16 15 15 15 15 15 14 14 14 14 14 14 14 14 14 14 13 13 13 13 13 13 13 13 12 12 12 12 12 12 12 12 12 13 13 13
16 16 16 16 16 16 15 15 15 15 15 14 14 14 14 14 14 14 14 13 13 13 13 13 13 13 13 13 13 12 12 12 12 11 12 11 12 11 11 12 12 12 12
Wind_Speed
4 5 4 5 7 8 5 3 2 3 3 2 2 4 5 7 11 12 13 14 13 12 11 11 10 10 9 9 9 8 8 8 8 8 7 7 7 6 6 6 5 5 6
5 5 3 2 3 5 6 4 4 4 2 2 2 3 4 7 9 12 14 13 13 12 11 10 10 10 9 9 9 8 8 8 8 8 8 7 7 7 6 6 6 6 6
8 6 4 3 2 5 6 3 3 3 3 3 2 2 3 5 7 9 12 13 12 11 11 11 10 10 9 9 9 9 9 9 9 9 9 9 9 8 7 7 7 7 7
9 5 4 4 4 5 4 3 3 3 2 2 2 2 3 3 5 6 8 11 12 12 12 12 12 11 10 10 9 9 9 10 10 10 10 10 10 10 9 9 9 9 9
9 5 3 4 5 3 3 4 3 2 2 2 3 3 3 4 4 5 6 8 10 12 13 14 14 13 12 11 10 10 10 10 11 10 10 11 11 11 11 11 11 11 11
9 6 4 4 4 3 3 3 4 2 1 2 2 3 3 4 3 3 5 7 9 11 13 13 13 12 12 12 11 10 10 10 11 11 11 11 11 11 11 12 12 13 13
9 5 4 5 3 3 4 4 3 3 2 2 1 2 3 4 5 4 3 3 5 8 11 13 13 12 11 12 12 11 10 10 10 10 11 11 11 11 12 12 12 13 13
8 7 4 5 4 3 4 4 3 2 3 3 2 1 1 2 3 6 5 4 5 6 7 11 12 11 11 11 12 13 12 10 10 10 10 10 10 11 12 12 12 13 13
8 5 6 5 5 5 5 5 4 3 2 2 2 1 1 1 2 2 5 5 4 4 4 7 11 12 11 12 12 14 14 12 10 9 9 9 10 10 11 11 12 12 13
8 7 6 6 5 4 6 6 6 4 3 2 2 1 1 1 1 2 3 4 5 5 4 4 6 11 11 10 13 14 15 14 12 10 9 9 9 9 10 10 10 11 12
7 8 8 6 6 4 6 5 4 3 2 3 2 2 2 2 2 2 3 3 4 5 5 4 4 6 11 11 13 15 17 15 13 12 10 9 9 9 9 10 10 10 11
7 8 8 7 6 5 5 4 4 5 3 2 1 1 1 2 3 3 3 4 4 4 5 4 4 5 9 12 12 16 18 17 15 13 12 11 10 10 10 10 10 11 11
7 8 8 7 6 5 5 5 5 4 4 3 3 2 2 3 2 2 1 2 2 2 4 4 4 5 8 9 11 17 18 18 17 15 14 13 12 11 11 11 11 11 12
7 8 8 7 6 6 6 5 5 5 4 4 5 3 2 3 2 2 1 1 1 2 3 5 4 5 6 8 13 17 15 18 17 16 15 14 14 13 13 13 12 12 12
7 8 8 8 7 6 5 6 4 5 4 5 5 5 4 4 3 3 2 2 2 2 3 3 3 5 6 8 14 14 11 17 19 18 18 18 17 16 15 15 15 14 15
5 8 8 8 8 7 6 6 5 5 5 5 4 4 4 4 4 3 2 2 2 2 2 1 2 3 4 5 13 12 10 13 20 20 21 21 20 19 19 18 18 17 17
6 7 8 8 8 8 7 6 6 6 6 6 6 6 5 4 3 3 3 3 3 2 3 3 2 1 3 2 4 7 8 9 13 21 23 23 23 22 22 21 20 20 20
7 7 7 7 8 8 8 8 7 6 6 6 6 5 5 5 5 4 4 4 3 3 3 3 2 1 3 5 5 5 7 10 11 15 22 24 24 24 24 23 23 23 22
7 7 6 7 7 7 7 7 7 6 6 6 6 6 5 6 5 5 5 4 4 5 4 4 4 3 3 4 5 6 7 5 10 12 17 22 23 24 24 25 25 25 25
6 6 6 6 5 5 6 6 6 6 6 6 6 5 5 6 5 5 5 5 5 5 4 4 4 4 4 3 3 3 4 4 6 9 8 11 17 22 25 26 26 27 27
6 6 5 5 5 5 5 5 5 7 6 6 5 5 5 6 6 5 5 4 5 4 4 4 5 4 4 2 2 3 5 4 5 5 4 5 6 8 13 20 24 26 27
5 6 6 5 5 5 5 6 5 5 6 6 6 5 5 5 5 6 5 4 4 5 5 4 5 5 4 3 3 3 3 4 4 3 3 6 5 6 6 12 16 21 24
6 5 5 5 5 4 5 7 8 6 5 4 4 4 6 5 5 5 5 6 6 7 7 5 6 6 4 3 3 4 4 5 6 5 5 7 6 7 7 13 14 16 19
5 5 4 4 4 4 6 6 7 6 5 4 4 4 3 2 2 2 4 4 5 5 7 6 6 7 6 4 4 5 6 7 7 6 6 8 7 7 8 8 14 16 18
5 5 4 4 4 3 4 4 4 4 3 4 3 2 3 3 2 3 4 4 5 5 7 8 8 9 10 11 7 4 5 6 8 7 5 6 7 7 6 6 10 16 17
4 4 4 4 3 2 3 4 3 2 3 3 2 2 2 3 3 3 3 4 5 4 5 5 5 8 9 10 11 8 7 7 7 6 5 5 6 5 6 5 5 7 10
Wind_Direction
151 138 140 162 175 165 173 191 139 116 116 147 141 107 96 104 124 139 147 154 153 155 158 161 165 167 168 168 168 168 168 166 165 165 164 163 161 161 160 159 156 156 153
133 132 139 169 154 149 152 149 139 138 151 124 92 98 107 116 120 136 147 157 160 162 166 168 172 175 178 180 182 184 185 183 183 184 183 183 182 183 184 183 183 180 180
141 146 150 183 162 132 129 135 144 139 169 162 155 139 106 103 124 136 148 160 166 172 174 175 180 183 186 190 192 194 197 197 197 198 197 198 199 200 200 201 201 200 200
154 160 164 178 157 151 154 150 178 161 146 143 155 158 135 131 143 153 157 163 166 173 182 187 188 189 193 198 202 204 205 206 207 207 208 209 209 211 212 214 213 214 214
163 175 158 139 161 158 164 175 143 134 146 155 174 167 168 165 169 176 165 173 174 172 176 188 193 194 197 201 205 209 210 212 214 215 217 218 219 219 221 222 222 222 224
171 173 157 152 183 169 150 114 113 104 138 198 222 162 184 176 180 173 185 180 179 181 178 178 185 198 203 202 202 204 209 212 214 214 217 220 223 224 225 229 230 230 230
172 182 166 158 194 163 147 140 141 156 210 190 186 189 190 187 181 176 194 178 173 180 175 169 182 187 190 200 199 199 201 204 206 211 217 222 226 227 229 232 235 236 237
171 184 159 174 177 155 150 156 149 175 216 187 203 196 197 195 198 190 179 192 181 176 176 178 179 182 185 183 197 201 201 203 207 213 219 225 229 231 234 237 238 240 240
179 195 170 189 172 178 172 174 181 200 222 210 208 197 200 181 193 179 195 182 170 175 182 179 180 184 189 182 185 198 202 204 209 214 220 226 229 234 238 240 241 241 242
183 190 187 195 184 189 163 189 188 193 206 240 220 195 210 88 151 169 216 182 182 183 197 201 188 181 190 186 184 188 196 202 208 215 223 227 227 232 237 240 243 244 244
191 191 192 193 187 194 174 192 153 189 204 235 235 206 212 199 224 207 199 187 194 188 189 198 193 187 192 188 181 183 190 197 205 213 221 227 230 235 240 242 244 243 244
194 196 193 190 189 193 172 173 167 196 215 254 282 261 205 211 227 226 205 199 198 193 184 185 190 194 199 195 194 187 188 196 204 211 218 226 231 235 238 241 245 246 248
190 192 191 184 188 185 173 173 180 202 203 217 245 269 277 263 254 255 234 233 205 180 185 193 195 193 207 183 175 179 189 197 204 211 217 224 230 234 238 241 244 247 251
190 178 177 177 182 185 184 175 189 198 198 202 228 239 278 279 281 274 269 275 253 225 206 206 187 181 196 171 174 180 192 201 207 212 217 223 229 234 239 242 245 248 252
186 170 173 176 180 185 185 174 199 205 187 198 224 226 237 263 263 272 278 278 255 261 247 217 186 179 173 165 170 189 198 205 211 216 221 226 230 234 239 242 246 250 254
183 166 175 177 183 186 186 187 201 201 194 208 223 229 222 253 251 243 249 264 264 262 269 237 221 189 177 189 181 200 214 211 213 220 226 229 231 234 238 241 245 249 252
187 179 181 184 187 186 188 192 208 201 201 214 223 219 217 245 273 277 246 244 252 249 256 257 243 169 161 193 171 219 227 220 221 226 228 231 233 234 237 241 244 247 250
184 185 186 189 193 190 191 192 208 208 205 215 224 228 221 230 233 266 277 264 253 243 242 257 255 248 216 201 199 216 241 249 247 237 229 229 232 234 237 241 243 246 248
183 184 184 188 195 192 191 194 202 212 212 217 220 223 224 232 233 236 248 264 266 257 232 244 253 251 239 223 212 223 239 254 266 263 236 230 232 235 238 241 243 245 247
181 182 185 185 191 196 196 198 198 212 223 227 224 222 222 227 229 234 242 247 262 273 263 255 258 256 249 236 217 222 245 243 253 265 263 239 234 237 241 243 246 247 249
187 176 179 182 191 199 205 204 206 214 219 228 227 224 224 221 220 222 242 239 247 252 259 258 258 262 261 261 249 241 253 257 254 253 269 264 246 242 249 251 251 251 250
180 178 182 186 190 207 199 192 199 216 214 218 220 220 227 218 215 216 230 245 253 254 262 263 264 261 264 264 268 273 280 283 277 273 281 279 273 263 253 252 249 248 248
183 186 186 186 185 196 191 190 200 215 218 211 213 219 234 229 203 210 221 234 247 248 241 255 265 270 278 288 302 293 285 282 274 279 287 278 270 268 266 272 266 255 251
183 185 185 189 189 201 188 187 202 214 225 223 215 211 215 259 262 224 228 234 238 242 237 235 249 262 269 272 267 270 274 275 268 266 263 272 273 270 276 279 282 275 263
174 178 178 184 189 188 176 185 197 214 219 230 227 218 199 207 230 232 228 241 252 253 247 250 249 255 259 261 256 263 266 271 277 276 269 271 278 282 281 280 282 281 271
179 177 176 174 169 147 145 158 184 217 232 237 211 196 174 202 222 220 231 244 257 269 280 278 265 262 256 255 248 235 245 257 269 277 276 277 283 294 290 278 280 294 290
Height
1550 1552 1553 1555 1557 1558 1559 1561 1563 1564 1565 1567 1568 1569 1569 1569 1570 1570 1572 1573 1574 1575 1576 1577 1578 1580 1581 1582 1583 1584 1585 1586 1587 1588 1589 1590 1591 1592 1593 1593 1594 1595 1596
1549 1551 1553 1554 1557 1558 1559 1561 1562 1563 1564 1566 1567 1568 1569 1570 1570 1571 1572 1573 1574 1575 1576 1577 1578 1579 1580 1582 1583 1584 1585 1586 1587 1588 1589 1590 1590 1591 1592 1593 1594 1595 1595
1548 1550 1552 1554 1556 1557 1558 1560 1562 1563 1564 1566 1567 1568 1569 1570 1570 1571 1572 1572 1573 1574 1575 1576 1577 1579 1580 1581 1582 1583 1584 1585 1586 1587 1588 1589 1589 1590 1591 1592 1593 1594 1594
1547 1549 1551 1553 1555 1556 1558 1559 1561 1563 1564 1565 1566 1567 1568 1569 1570 1571 1571 1572 1573 1574 1575 1576 1577 1578 1579 1580 1581 1582 1583 1584 1584 1585 1586 1587 1588 1589 1590 1591 1592 1592 1593
1545 1548 1550 1552 1554 1556 1557 1559 1560 1562 1563 1564 1565 1566 1567 1568 1569 1570 1570 1571 1572 1573 1574 1575 1576 1577 1578 1579 1579 1580 1581 1582 1583 1584 1584 1585 1586 1587 1588 1589 1590 1591 1591
1544 1546 1549 1551 1553 1555 1556 1558 1559 1561 1562 1563 1565 1565 1566 1567 1568 1569 1570 1571 1572 1572 1573 1574 1575 1576 1577 1577 1578 1579 1579 1580 1581 1581 1582 1583 1584 1585 1586 1587 1587 1588 1589
1542 1545 1548 1549 1552 1554 1555 1556 1558 1560 1561 1563 1564 1565 1565 1566 1567 1568 1569 1570 1571 1572 1573 1573 1574 1574 1575 1576 1577 1577 1577 1578 1579 1579 1580 1581 1581 1582 1583 1584 1584 1585 1586
1541 1544 1546 1548 1550 1552 1554 1555 1557 1559 1560 1561 1563 1564 1564 1566 1566 1567 1568 1569 1570 1571 1572 1572 1573 1573 1574 1574 1575 1576 1576 1576 1577 1577 1578 1578 1579 1579 1580 1581 1581 1582 1583
1539 1542 1544 1546 1548 1550 1552 1554 1555 1557 1559 1560 1561 1563 1563 1564 1565 1566 1567 1568 1569 1570 1571 1571 1572 1572 1573 1573 1573 1574 1574 1574 1575 1575 1575 1576 1576 1576 1577 1577 1578 1579 1579
1537 1540 1542 1544 1547 1549 1550 1552 1554 1556 1557 1559 1560 1561 1562 1563 1563 1565 1566 1566 1567 1568 1569 1570 1570 1570 1571 1571 1571 1572 1572 1572 1573 1573 1573 1573 1573 1574 1574 1574 1575 1575 1576
1535 1538 1540 1542 1544 1547 1548 1550 1552 1554 1555 1557 1559 1560 1561 1561 1562 1563 1564 1565 1566 1566 1567 1568 1568 1569 1569 1569 1569 1569 1570 1570 1570 1571 1571 1571 1571 1571 1571 1571 1572 1572 1572
1532 1535 1537 1539 1542 1544 1546 1548 1549 1551 1553 1555 1556 1557 1559 1560 1561 1562 1562 1563 1563 1564 1565 1565 1566 1567 1567 1567 1567 1567 1568 1568 1568 1568 1568 1568 1568 1568 1568 1568 1569 1569 1569
1528 1531 1534 1536 1539 1541 1543 1545 1547 1549 1550 1552 1553 1555 1556 1558 1559 1560 1560 1561 1561 1562 1562 1563 1563 1564 1565 1565 1565 1566 1566 1566 1566 1565 1565 1565 1565 1565 1565 1565 1565 1565 1565
1525 1528 1531 1534 1536 1539 1541 1543 1545 1546 1548 1549 1551 1552 1553 1555 1556 1557 1558 1559 1559 1560 1560 1560 1561 1561 1562 1562 1562 1563 1563 1563 1563 1563 1563 1563 1563 1563 1562 1562 1562 1562 1562
1523 1526 1528 1531 1533 1536 1538 1540 1542 1544 1545 1546 1548 1550 1551 1552 1554 1555 1555 1556 1558 1557 1557 1558 1558 1559 1559 1560 1560 1560 1560 1560 1560 1560 1560 1560 1559 1559 1559 1559 1559 1558 1558
1520 1522 1525 1528 1530 1532 1534 1537 1539 1541 1542 1544 1545 1547 1548 1550 1551 1552 1553 1553 1554 1555 1555 1555 1556 1556 1556 1557 1557 1557 1557 1557 1556 1556 1556 1556 1556 1556 1555 1555 1555 1554 1553
1517 1519 1522 1524 1527 1529 1531 1534 1536 1538 1539 1541 1542 1544 1545 1546 1548 1549 1550 1551 1551 1552 1552 1552 1553 1553 1553 1554 1554 1554 1554 1553 1552 1552 1552 1552 1552 1551 1551 1551 1550 1549 1549
1514 1516 1519 1521 1523 1526 1528 1530 1533 1535 1536 1538 1539 1541 1542 1543 1544 1545 1546 1547 1548 1549 1549 1549 1549 1550 1550 1550 1550 1550 1550 1549 1549 1548 1548 1548 1547 1547 1546 1546 1545 1544 1544
1511 1513 1515 1517 1520 1523 1525 1527 1529 1531 1533 1535 1536 1537 1538 1539 1540 1542 1543 1544 1545 1545 1546 1546 1546 1546 1547 1546 1546 1546 1545 1545 1545 1544 1544 1543 1542 1542 1541 1540 1539 1539 1538
1508 1510 1512 1515 1517 1520 1522 1524 1526 1527 1529 1531 1533 1534 1535 1535 1536 1538 1539 1540 1541 1541 1542 1542 1542 1542 1542 1542 1542 1541 1540 1540 1540 1540 1539 1538 1537 1536 1535 1534 1533 1532 1532
1506 1508 1510 1512 1515 1517 1519 1521 1522 1524 1526 1527 1529 1530 1531 1532 1532 1534 1535 1536 1536 1537 1537 1538 1538 1538 1538 1538 1537 1537 1536 1535 1535 1535 1534 1533 1531 1530 1528 1528 1527 1526 1525
1504 1506 1508 1510 1512 1514 1516 1518 1519 1520 1522 1523 1524 1525 1527 1528 1528 1529 1530 1531 1532 1532 1532 1533 1532 1533 1533 1533 1533 1532 1531 1530 1529 1529 1528 1526 1525 1523 1522 1521 1520 1519 1518
1502 1504 1506 1508 1509 1511 1513 1515 1516 1517 1519 1519 1520 1521 1522 1523 1524 1525 1525 1526 1527 1527 1528 1528 1527 1527 1527 1527 1527 1527 1526 1524 1523 1523 1522 1519 1518 1517 1516 1515 1514 1513 1512
1499 1501 1503 1504 1506 1508 1510 1511 1513 1514 1515 1516 1517 1518 1519 1520 1520 1520 1521 1521 1521 1522 1522 1522 1522 1521 1522 1521 1521 1521 1519 1518 1516 1516 1516 1513 1511 1510 1509 1508 1507 1506 1504
1497 1499 1500 1502 1504 1505 1507 1508 1510 1511 1511 1512 1513 1514 1515 1515 1516 1516 1517 1517 1517 1517 1517 1517 1516 1516 1515 1515 1515 1514 1513 1511 1509 1509 1509 1507 1504 1502 1501 1500 1499 1498 1497
1496 1497 1499 1500 1501 1503 1504 1505 1507 1507 1508 1509 1510 1510 1511 1511 1512 1512 1512 1511 1511 1511 1511 1511 1510 1510 1509 1509 1508 1508 1506 1505 1503 1502 1501 1501 1498 1496 1492 1491 1491 1490 1489